Time,TemperatureF,DewpointF,PressureIn,WindDirection,WindDirectionDegrees,WindSpeedMPH,WindSpeedGustMPH,Humidity,HourlyPrecipIn,Conditions,Clouds,dailyrainin,SoftwareType,DateUTC
2013-02-18 00:00:00,11.7,5.3,30.21,SW,225,4.6,4.7,75,0.00,-SN,,0.00,WeatherDisplay:10.37,2013-02-18 05:00:00,
2013-02-18 00:05:00,11.5,5.1,30.21,SW,225,3.6,5.8,75,0.00,-SN,,0.00,WeatherDisplay:10.37,2013-02-18 05:05:00,
2013-02-18 00:10:00,11.5,5.1,30.21,West,270,5.9,6.9,75,0.00,-SN,,0.00,WeatherDisplay:10.37,2013-02-18 05:10:00,
2013-02-18 00:15:00,11.5,5.1,30.20,WSW,248,5.3,5.8,75,0.00,-SN,,0.00,WeatherDisplay:10.37,2013-02-18 05:15:00,
2013-02-18 00:20:00,11.5,5.1,30.20,WSW,248,5.1,5.8,75,0.00,-SN,,0.00,WeatherDisplay:10.37,2013-02-18 05:20:00,
2013-02-18 00:25:00,11.5,5.1,30.20,WNW,292,4.3,6.9,75,0.00,-SN,,0.00,WeatherDisplay:10.37,2013-02-18 05:25:00,
2013-02-18 00:30:00,11.3,5.2,30.20,West,270,4.7,5.8,76,0.00,-SN,,0.00,WeatherDisplay:10.37,2013-02-18 05:30:00,
2013-02-18 00:35:00,11.1,5.0,30.20,SW,225,3.3,3.5,76,0.00,-SN,,0.00,WeatherDisplay:10.37,2013-02-18 05:35:00,
2013-02-18 00:40:00,10.9,5.1,30.21,SW,225,3.2,4.2,77,0.00,-SN,,0.00,WeatherDisplay:10.37,2013-02-18 05:40:00,
2013-02-18 00:45:00,10.8,5.3,30.21,WSW,248,3.0,3.5,78,0.00,-SN,,0.00,WeatherDisplay:10.37,2013-02-18 05:45:00,
2013-02-18 00:50:00,10.8,5.3,30.21,SW,225,2.7,3.5,78,0.00,-SN,,0.00,WeatherDisplay:10.37,2013-02-18 05:50:00,
2013-02-18 00:55:00,10.8,5.3,30.21,SW,225,3.7,4.6,78,0.00,-SN,,0.00,WeatherDisplay:10.37,2013-02-18 05:55:00,
2013-02-18 01:00:00,10.8,5.3,30.21,SW,225,3.0,3.5,78,0.00,-SN,,0.00,WeatherDisplay:10.37,2013-02-18 06:00:00,
2013-02-18 01:05:00,10.6,5.1,30.21,WSW,248,2.4,2.7,78,0.00,-SN,,0.00,WeatherDisplay:10.37,2013-02-18 06:05:00,
2013-02-18 01:10:00,10.2,5.0,30.21,SW,225,2.7,3.5,79,0.00,-SN,,0.00,WeatherDisplay:10.37,2013-02-18 06:10:00,
2013-02-18 01:15:00,10.0,5.1,30.21,WSW,248,2.4,3.5,80,0.00,-SN,,0.00,WeatherDisplay:10.37,2013-02-18 06:15:00,
2013-02-18 01:20:00,9.9,5.2,30.21,SW,225,2.9,3.7,81,0.00,-SN,,0.00,WeatherDisplay:10.37,2013-02-18 06:20:00,
2013-02-18 01:25:00,9.9,5.2,30.21,WSW,248,3.5,3.5,81,0.00,-SN,,0.00,WeatherDisplay:10.37,2013-02-18 06:25:00,
2013-02-18 01:30:00,9.9,5.2,30.21,SW,225,1.9,2.3,81,0.00,-SN,,0.00,WeatherDisplay:10.37,2013-02-18 06:30:00,
2013-02-18 01:35:00,9.9,5.2,30.21,SW,225,2.2,3.5,81,0.00,-SN,,0.00,WeatherDisplay:10.37,2013-02-18 06:35:00,
2013-02-18 01:40:00,9.9,5.5,30.22,WSW,248,2.8,3.5,82,0.00,-SN,,0.00,WeatherDisplay:10.37,2013-02-18 06:40:00,
2013-02-18 01:45:00,9.7,5.3,30.22,West,270,2.5,2.7,82,0.00,-SN,,0.00,WeatherDisplay:10.37,2013-02-18 06:45:00,
2013-02-18 01:50:00,9.7,5.3,30.22,WSW,248,2.4,2.7,82,0.00,-SN,,0.00,WeatherDisplay:10.37,2013-02-18 06:50:00,
2013-02-18 01:55:00,9.7,5.6,30.22,WSW,248,2.5,2.7,83,0.00,-SN,,0.00,WeatherDisplay:10.37,2013-02-18 06:55:00,
2013-02-18 02:00:00,9.9,5.8,30.22,West,270,2.8,3.5,83,0.00,-SN,,0.00,WeatherDisplay:10.37,2013-02-18 07:00:00,
2013-02-18 02:05:00,9.9,5.8,30.22,WSW,248,2.9,3.5,83,0.00,-SN,,0.00,WeatherDisplay:10.37,2013-02-18 07:05:00,
2013-02-18 02:10:00,9.7,5.6,30.22,WSW,248,1.0,2.3,83,0.00,-SN,,0.00,WeatherDisplay:10.37,2013-02-18 07:10:00,
2013-02-18 02:15:00,9.5,5.6,30.22,West,270,2.7,3.5,84,0.00,-SN,,0.00,WeatherDisplay:10.37,2013-02-18 07:15:00,
2013-02-18 02:20:00,9.5,5.6,30.22,WSW,248,2.5,3.2,84,0.00,-SN,,0.00,WeatherDisplay:10.37,2013-02-18 07:20:00,
2013-02-18 02:25:00,9.5,5.6,30.22,SW,225,2.2,2.3,84,0.00,-SN,,0.00,WeatherDisplay:10.37,2013-02-18 07:25:00,
2013-02-18 02:30:00,9.5,5.6,30.22,WSW,248,1.1,2.3,84,0.00,-SN,,0.00,WeatherDisplay:10.37,2013-02-18 07:30:00,
2013-02-18 02:35:00,9.3,5.4,30.22,West,270,2.1,3.5,84,0.00,-SN,,0.00,WeatherDisplay:10.37,2013-02-18 07:35:00,
2013-02-18 02:40:00,9.3,5.4,30.23,West,270,1.7,2.3,84,0.00,-SN,,0.00,WeatherDisplay:10.37,2013-02-18 07:40:00,
2013-02-18 02:45:00,9.0,5.4,30.23,West,270,1.9,2.3,85,0.00,-SN,,0.00,WeatherDisplay:10.37,2013-02-18 07:45:00,
2013-02-18 02:50:00,9.0,5.4,30.23,West,270,1.9,2.3,85,0.00,-SN,,0.00,WeatherDisplay:10.37,2013-02-18 07:50:00,
2013-02-18 02:55:00,8.8,5.5,30.23,West,270,1.7,2.3,86,0.00,-SN,,0.00,WeatherDisplay:10.37,2013-02-18 07:55:00,
2013-02-18 03:00:00,8.6,5.3,30.23,West,270,1.6,2.3,86,0.00,-SN,,0.00,WeatherDisplay:10.37,2013-02-18 08:00:00,
2013-02-18 03:05:00,8.2,5.1,30.23,West,270,0.4,1.1,87,0.00,-SN,,0.00,WeatherDisplay:10.37,2013-02-18 08:05:00,
2013-02-18 03:10:00,8.2,5.1,30.23,West,270,0.0,0.0,87,0.00,-SN,,0.00,WeatherDisplay:10.37,2013-02-18 08:10:00,
2013-02-18 03:15:00,7.7,4.6,30.22,West,270,0.0,0.0,87,0.00,-SN,,0.00,WeatherDisplay:10.37,2013-02-18 08:15:00,
2013-02-18 03:20:00,7.5,4.7,30.22,West,270,0.0,0.0,88,0.00,-SN,,0.00,WeatherDisplay:10.37,2013-02-18 08:20:00,
2013-02-18 03:25:00,7.3,4.7,30.22,WSW,248,0.0,0.0,89,0.00,-SN,,0.00,WeatherDisplay:10.37,2013-02-18 08:25:00,
2013-02-18 03:30:00,7.2,4.6,30.23,WSW,248,0.0,0.0,89,0.00,-SN,,0.00,WeatherDisplay:10.37,2013-02-18 08:30:00,
2013-02-18 03:35:00,7.0,4.4,30.23,WSW,248,1.0,1.7,89,0.00,-SN,,0.00,WeatherDisplay:10.37,2013-02-18 08:35:00,
2013-02-18 03:40:00,7.2,4.9,30.24,WSW,248,0.7,2.3,90,0.00,-SN,,0.00,WeatherDisplay:10.37,2013-02-18 08:40:00,
2013-02-18 03:45:00,7.5,5.2,30.24,WSW,248,1.9,2.3,90,0.00,-SN,,0.00,WeatherDisplay:10.37,2013-02-18 08:45:00,
2013-02-18 03:50:00,8.1,5.8,30.24,West,270,2.1,2.3,90,0.00,-SN,,0.00,WeatherDisplay:10.37,2013-02-18 08:50:00,
2013-02-18 03:55:00,8.4,5.6,30.24,West,270,1.1,1.7,88,0.00,-SN,,0.00,WeatherDisplay:10.37,2013-02-18 08:55:00,
2013-02-18 04:00:00,8.2,5.4,30.24,WSW,248,2.2,2.3,88,0.00,-SN,,0.00,WeatherDisplay:10.37,2013-02-18 09:00:00,
2013-02-18 04:05:00,8.4,5.6,30.24,WSW,248,1.7,1.7,88,0.00,-SN,,0.00,WeatherDisplay:10.37,2013-02-18 09:05:00,
2013-02-18 04:10:00,8.4,5.3,30.24,SW,225,1.4,2.3,87,0.00,-SN,,0.00,WeatherDisplay:10.37,2013-02-18 09:10:00,
2013-02-18 04:15:00,8.2,5.1,30.25,SW,225,0.3,0.0,87,0.00,SCT,,0.00,WeatherDisplay:10.37,2013-02-18 09:15:00,
2013-02-18 04:20:00,7.7,4.6,30.25,SW,225,0.0,0.0,87,0.00,SCT,,0.00,WeatherDisplay:10.37,2013-02-18 09:20:00,
2013-02-18 04:25:00,7.5,4.7,30.25,SW,225,0.0,0.0,88,0.00,SCT,,0.00,WeatherDisplay:10.37,2013-02-18 09:25:00,
2013-02-18 04:30:00,7.3,4.7,30.24,SW,225,0.0,0.0,89,0.00,SCT,,0.00,WeatherDisplay:10.37,2013-02-18 09:30:00,
2013-02-18 04:35:00,7.5,4.9,30.24,SW,225,0.0,0.0,89,0.00,SCT,,0.00,WeatherDisplay:10.37,2013-02-18 09:35:00,
2013-02-18 04:40:00,7.2,4.6,30.25,SW,225,0.0,0.0,89,0.00,SCT,,0.00,WeatherDisplay:10.37,2013-02-18 09:40:00,
2013-02-18 04:45:00,7.0,4.4,30.25,SW,225,0.0,0.0,89,0.00,SCT,,0.00,WeatherDisplay:10.37,2013-02-18 09:45:00,
2013-02-18 04:50:00,6.8,4.5,30.25,SW,225,0.0,0.0,90,0.00,SCT,,0.00,WeatherDisplay:10.37,2013-02-18 09:50:00,
2013-02-18 04:55:00,6.4,4.3,30.25,SW,225,0.0,0.0,91,0.00,SCT,,0.00,WeatherDisplay:10.37,2013-02-18 09:55:00,
2013-02-18 05:00:00,6.3,4.2,30.25,SW,225,0.0,0.0,91,0.00,SCT,,0.00,WeatherDisplay:10.37,2013-02-18 10:00:00,
2013-02-18 05:05:00,6.1,4.0,30.25,SW,225,0.0,0.0,91,0.00,SCT,,0.00,WeatherDisplay:10.37,2013-02-18 10:05:00,
2013-02-18 05:10:00,6.1,4.0,30.25,SW,225,0.0,0.0,91,0.00,SCT,,0.00,WeatherDisplay:10.37,2013-02-18 10:10:00,
2013-02-18 05:15:00,6.1,4.0,30.25,SW,225,0.0,0.0,91,0.00,SCT,,0.00,WeatherDisplay:10.37,2013-02-18 10:15:00,
2013-02-18 05:20:00,5.9,3.8,30.25,SW,225,0.0,0.0,91,0.00,SCT,,0.00,WeatherDisplay:10.37,2013-02-18 10:20:00,
2013-02-18 05:25:00,5.9,3.8,30.25,SW,225,0.0,0.0,91,0.00,SCT,,0.00,WeatherDisplay:10.37,2013-02-18 10:25:00,
2013-02-18 05:30:00,5.5,3.4,30.25,ESE,112,1.7,2.3,91,0.00,SCT,,0.00,WeatherDisplay:10.37,2013-02-18 10:30:00,
2013-02-18 05:35:00,5.5,3.7,30.25,SE,135,0.4,1.1,92,0.00,SCT,,0.00,WeatherDisplay:10.37,2013-02-18 10:35:00,
2013-02-18 05:40:00,5.5,3.7,30.25,West,270,0.0,0.0,92,0.00,SCT,,0.00,WeatherDisplay:10.37,2013-02-18 10:40:00,
2013-02-18 05:45:00,5.5,3.7,30.25,SW,225,1.8,2.3,92,0.00,SCT,,0.00,WeatherDisplay:10.37,2013-02-18 10:45:00,
2013-02-18 05:50:00,5.7,3.9,30.25,SW,225,0.0,0.0,92,0.00,SCT,,0.00,WeatherDisplay:10.37,2013-02-18 10:50:00,
2013-02-18 05:55:00,5.9,4.1,30.25,SSW,202,0.0,0.0,92,0.00,SCT,,0.00,WeatherDisplay:10.37,2013-02-18 10:55:00,
2013-02-18 06:00:00,6.1,4.0,30.25,SSE,158,2.3,2.3,91,0.00,SCT,,0.00,WeatherDisplay:10.37,2013-02-18 11:00:00,
2013-02-18 06:05:00,5.5,3.4,30.25,SSE,158,1.7,1.7,91,0.00,CLR,,0.00,WeatherDisplay:10.37,2013-02-18 11:05:00,
2013-02-18 06:10:00,5.9,4.1,30.25,SSE,158,2.6,3.5,92,0.00,CLR,,0.00,WeatherDisplay:10.37,2013-02-18 11:10:00,
2013-02-18 06:15:00,6.1,4.0,30.25,SSE,158,2.2,2.3,91,0.00,CLR,,0.00,WeatherDisplay:10.37,2013-02-18 11:15:00,
2013-02-18 06:20:00,6.1,4.0,30.25,SE,135,2.3,2.3,91,0.00,CLR,,0.00,WeatherDisplay:10.37,2013-02-18 11:20:00,
2013-02-18 06:25:00,6.1,4.0,30.25,SSE,158,2.0,2.3,91,0.00,CLR,,0.00,WeatherDisplay:10.37,2013-02-18 11:25:00,
2013-02-18 06:30:00,6.1,4.0,30.25,SE,135,1.7,2.3,91,0.00,CLR,,0.00,WeatherDisplay:10.37,2013-02-18 11:30:00,
2013-02-18 06:35:00,6.1,4.0,30.25,SSE,158,1.8,1.8,91,0.00,CLR,,0.00,WeatherDisplay:10.37,2013-02-18 11:35:00,
2013-02-18 06:40:00,6.1,4.0,30.25,SSE,158,2.2,2.3,91,0.00,CLR,,0.00,WeatherDisplay:10.37,2013-02-18 11:40:00,
2013-02-18 06:45:00,6.1,3.8,30.25,ESE,112,2.3,2.7,90,0.00,CLR,,0.00,WeatherDisplay:10.37,2013-02-18 11:45:00,
2013-02-18 06:50:00,6.3,4.0,30.25,SSE,158,2.1,2.3,90,0.00,CLR,,0.00,WeatherDisplay:10.37,2013-02-18 11:50:00,
2013-02-18 06:55:00,6.3,4.0,30.25,SSE,158,2.2,2.3,90,0.00,CLR,,0.00,WeatherDisplay:10.37,2013-02-18 11:55:00,
2013-02-18 07:00:00,6.3,4.0,30.25,SE,135,2.2,2.3,90,0.00,CLR,,0.00,WeatherDisplay:10.37,2013-02-18 12:00:00,
2013-02-18 07:05:00,6.3,4.0,30.25,SSE,158,1.7,2.3,90,0.00,CLR,,0.00,WeatherDisplay:10.37,2013-02-18 12:05:00,
2013-02-18 07:10:00,6.4,3.9,30.25,SSE,158,3.0,3.2,89,0.00,CLR,,0.00,WeatherDisplay:10.37,2013-02-18 12:10:00,
2013-02-18 07:15:00,6.6,4.0,30.25,South,180,1.6,2.3,89,0.00,FEW,,0.00,WeatherDisplay:10.37,2013-02-18 12:15:00,
2013-02-18 07:20:00,6.8,4.0,30.25,SE,135,2.8,3.2,88,0.00,FEW,,0.00,WeatherDisplay:10.37,2013-02-18 12:20:00,
2013-02-18 07:25:00,7.0,4.2,30.25,SSE,158,3.0,3.5,88,0.00,FEW,,0.00,WeatherDisplay:10.37,2013-02-18 12:25:00,
2013-02-18 07:30:00,7.3,4.2,30.25,SSE,158,3.6,4.6,87,0.00,FEW,,0.00,WeatherDisplay:10.37,2013-02-18 12:30:00,
2013-02-18 07:35:00,7.5,4.2,30.25,SSE,158,4.4,4.7,86,0.00,FEW,,0.00,WeatherDisplay:10.37,2013-02-18 12:35:00,
2013-02-18 07:40:00,8.1,4.8,30.25,SSE,158,3.3,3.5,86,0.00,FEW,,0.00,WeatherDisplay:10.37,2013-02-18 12:40:00,
2013-02-18 07:45:00,8.1,4.8,30.25,SSE,158,3.9,4.6,86,0.00,FEW,,0.00,WeatherDisplay:10.37,2013-02-18 12:45:00,
2013-02-18 07:50:00,9.0,5.4,30.25,SSE,158,3.7,3.7,85,0.00,FEW,,0.00,WeatherDisplay:10.37,2013-02-18 12:50:00,
2013-02-18 07:55:00,9.7,5.6,30.25,SE,135,3.2,5.3,83,0.00,FEW,,0.00,WeatherDisplay:10.37,2013-02-18 12:55:00,
2013-02-18 08:00:00,10.0,5.6,30.25,SSE,158,3.9,4.6,82,0.00,FEW,,0.00,WeatherDisplay:10.37,2013-02-18 13:00:00,
2013-02-18 08:05:00,10.2,5.8,30.24,South,180,3.7,4.6,82,0.00,FEW,,0.00,WeatherDisplay:10.37,2013-02-18 13:05:00,
2013-02-18 08:10:00,10.9,6.2,30.24,SSE,158,3.6,4.6,81,0.00,FEW,,0.00,WeatherDisplay:10.37,2013-02-18 13:10:00,
2013-02-18 08:15:00,11.3,6.3,30.24,SE,135,3.7,4.6,80,0.00,FEW,,0.00,WeatherDisplay:10.37,2013-02-18 13:15:00,
2013-02-18 08:20:00,12.2,6.7,30.24,SSE,158,4.5,5.8,78,0.00,FEW,,0.00,WeatherDisplay:10.37,2013-02-18 13:20:00,
2013-02-18 08:25:00,12.9,7.0,30.24,SE,135,3.8,4.6,77,0.00,SCT,,0.00,WeatherDisplay:10.37,2013-02-18 13:25:00,
2013-02-18 08:30:00,14.2,7.7,30.24,SE,135,3.0,3.5,75,0.00,SCT,,0.00,WeatherDisplay:10.37,2013-02-18 13:30:00,
2013-02-18 08:35:00,15.3,8.2,30.24,SE,135,3.8,4.6,73,0.00,SCT,,0.00,WeatherDisplay:10.37,2013-02-18 13:35:00,
2013-02-18 08:40:00,16.0,8.9,30.24,SE,135,3.6,4.6,73,0.00,SCT,,0.00,WeatherDisplay:10.37,2013-02-18 13:40:00,
2013-02-18 08:45:00,16.0,9.2,30.24,SE,135,3.2,3.7,74,0.00,SCT,,0.00,WeatherDisplay:10.37,2013-02-18 13:45:00,
2013-02-18 08:50:00,17.1,9.6,30.24,SSE,158,3.4,4.6,72,0.00,SCT,,0.00,WeatherDisplay:10.37,2013-02-18 13:50:00,
2013-02-18 08:55:00,18.1,10.3,30.24,SE,135,3.3,4.6,71,0.00,SCT,,0.00,WeatherDisplay:10.37,2013-02-18 13:55:00,
2013-02-18 09:00:00,18.9,10.4,30.24,SSE,158,2.9,3.5,69,0.00,SCT,,0.00,WeatherDisplay:10.37,2013-02-18 14:00:00,
2013-02-18 09:05:00,19.6,10.7,30.24,SSE,158,4.9,5.3,68,0.00,SCT,,0.00,WeatherDisplay:10.37,2013-02-18 14:05:00,
2013-02-18 09:10:00,20.3,11.1,30.24,SSE,158,4.0,4.6,67,0.00,SCT,,0.00,WeatherDisplay:10.37,2013-02-18 14:10:00,
2013-02-18 09:15:00,20.3,11.4,30.24,SSE,158,2.9,4.6,68,0.00,SCT,,0.00,WeatherDisplay:10.37,2013-02-18 14:15:00,
2013-02-18 09:21:00,21.0,11.8,30.24,South,180,2.5,3.5,67,0.00,SCT,,0.00,WeatherDisplay:10.37,2013-02-18 14:21:00,
2013-02-18 09:26:00,20.8,11.2,30.24,SSE,158,4.3,5.8,66,0.00,SCT,,0.00,WeatherDisplay:10.37,2013-02-18 14:26:00,
2013-02-18 09:31:00,21.9,11.2,30.23,SSE,158,4.5,4.6,63,0.00,SCT,,0.00,WeatherDisplay:10.37,2013-02-18 14:31:00,
2013-02-18 09:36:00,21.2,10.6,30.23,SSE,158,6.4,6.9,63,0.00,SCT,,0.00,WeatherDisplay:10.37,2013-02-18 14:36:00,
2013-02-18 09:41:00,21.7,11.7,30.24,SE,135,2.3,3.5,65,0.00,SCT,,0.00,WeatherDisplay:10.37,2013-02-18 14:41:00,
2013-02-18 09:46:00,23.2,12.5,30.24,ESE,112,1.3,2.3,63,0.00,SCT,,0.00,WeatherDisplay:10.37,2013-02-18 14:46:00,
2013-02-18 09:51:00,22.1,12.1,30.23,SW,225,2.6,2.7,65,0.00,SCT,,0.00,WeatherDisplay:10.37,2013-02-18 14:51:00,
2013-02-18 09:56:00,22.6,12.6,30.23,SE,135,3.2,4.7,65,0.00,SCT,,0.00,WeatherDisplay:10.37,2013-02-18 14:56:00,
2013-02-18 10:01:00,23.9,13.5,30.23,West,270,5.0,5.8,64,0.00,SCT,,0.00,WeatherDisplay:10.37,2013-02-18 15:01:00,
2013-02-18 10:06:00,22.8,12.8,30.23,West,270,4.0,4.6,65,0.00,SCT,,0.00,WeatherDisplay:10.37,2013-02-18 15:06:00,
2013-02-18 10:11:00,23.2,12.8,30.23,ENE,68,5.8,5.8,64,0.00,SCT,,0.00,WeatherDisplay:10.37,2013-02-18 15:11:00,
2013-02-18 10:16:00,23.9,12.8,30.23,NW,315,2.8,4.6,62,0.00,SCT,,0.00,WeatherDisplay:10.37,2013-02-18 15:16:00,
2013-02-18 10:21:00,23.9,12.8,30.23,SW,225,2.6,3.5,62,0.00,SCT,,0.00,WeatherDisplay:10.37,2013-02-18 15:21:00,
2013-02-18 10:26:00,25.0,13.4,30.23,SW,225,4.5,6.3,61,0.00,SCT,,0.00,WeatherDisplay:10.37,2013-02-18 15:26:00,
2013-02-18 10:31:00,25.0,13.1,30.23,SW,225,6.4,9.2,60,0.00,SCT,,0.00,WeatherDisplay:10.37,2013-02-18 15:31:00,
2013-02-18 10:36:00,24.3,12.8,30.23,SW,225,3.1,5.8,61,0.00,SCT,,0.00,WeatherDisplay:10.37,2013-02-18 15:36:00,
2013-02-18 10:41:00,24.4,12.9,30.22,West,270,3.1,5.8,61,0.00,SCT,,0.00,WeatherDisplay:10.37,2013-02-18 15:41:00,
2013-02-18 10:46:00,24.4,12.5,30.22,NE,45,3.6,5.8,60,0.00,SCT,,0.00,WeatherDisplay:10.37,2013-02-18 15:46:00,
2013-02-18 10:51:00,25.7,13.7,30.21,SE,135,5.6,5.8,60,0.00,SCT,,0.00,WeatherDisplay:10.37,2013-02-18 15:51:00,
2013-02-18 10:56:00,25.5,13.5,30.21,ESE,112,4.4,5.8,60,0.00,SCT,,0.00,WeatherDisplay:10.37,2013-02-18 15:56:00,
2013-02-18 11:01:00,26.1,13.7,30.21,SSE,158,6.8,9.9,59,0.00,SCT,,0.00,WeatherDisplay:10.37,2013-02-18 16:01:00,
2013-02-18 11:06:00,25.2,13.6,30.21,SSE,158,1.9,4.6,61,0.00,SCT,,0.00,WeatherDisplay:10.37,2013-02-18 16:06:00,
2013-02-18 11:11:00,25.9,13.9,30.21,South,180,2.2,2.7,60,0.00,SCT,,0.00,WeatherDisplay:10.37,2013-02-18 16:11:00,
2013-02-18 11:16:00,26.6,13.8,30.20,SW,225,4.3,4.6,58,0.00,SCT,,0.00,WeatherDisplay:10.37,2013-02-18 16:16:00,
2013-02-18 11:21:00,26.1,13.3,30.20,West,270,4.3,6.3,58,0.00,SCT,,0.00,WeatherDisplay:10.37,2013-02-18 16:21:00,
2013-02-18 11:26:00,26.2,13.0,30.20,ESE,112,7.1,9.2,57,0.00,SCT,,0.00,WeatherDisplay:10.37,2013-02-18 16:26:00,
2013-02-18 11:31:00,27.1,14.3,30.20,SSE,158,2.7,4.6,58,0.00,SCT,,0.00,WeatherDisplay:10.37,2013-02-18 16:31:00,
2013-02-18 11:36:00,27.0,14.2,30.20,ENE,68,3.3,5.8,58,0.00,SCT,,0.00,WeatherDisplay:10.37,2013-02-18 16:36:00,
2013-02-18 11:41:00,27.0,14.2,30.19,ENE,68,3.2,3.5,58,0.00,SCT,,0.00,WeatherDisplay:10.37,2013-02-18 16:41:00,
2013-02-18 11:46:00,27.7,14.0,30.19,ENE,68,6.1,6.9,56,0.00,SCT,,0.00,WeatherDisplay:10.37,2013-02-18 16:46:00,
2013-02-18 11:51:00,27.9,14.2,30.18,South,180,2.9,4.6,56,0.00,SCT,,0.00,WeatherDisplay:10.37,2013-02-18 16:51:00,
2013-02-18 11:56:00,27.3,12.8,30.18,SSW,202,3.1,4.7,54,0.00,SCT,,0.00,WeatherDisplay:10.37,2013-02-18 16:56:00,
2013-02-18 12:01:00,28.2,14.5,30.18,SE,135,5.4,6.9,56,0.00,SCT,,0.00,WeatherDisplay:10.37,2013-02-18 17:01:00,
2013-02-18 12:06:00,28.0,13.9,30.17,South,180,6.8,6.8,55,0.00,SCT,,0.00,WeatherDisplay:10.37,2013-02-18 17:06:00,
2013-02-18 12:11:00,28.4,13.9,30.17,SSE,158,5.9,6.9,54,0.00,SCT,,0.00,WeatherDisplay:10.37,2013-02-18 17:11:00,
2013-02-18 12:16:00,28.6,13.6,30.16,WSW,248,2.7,6.3,53,0.00,SCT,,0.00,WeatherDisplay:10.37,2013-02-18 17:16:00,
2013-02-18 12:21:00,28.6,13.6,30.16,SSE,158,4.2,4.7,53,0.00,SCT,,0.00,WeatherDisplay:10.37,2013-02-18 17:21:00,
2013-02-18 12:26:00,28.4,13.9,30.16,South,180,5.7,6.8,54,0.00,SCT,,0.00,WeatherDisplay:10.37,2013-02-18 17:26:00,
2013-02-18 12:31:00,28.2,12.8,30.16,SSE,158,2.6,5.8,52,0.00,SCT,,0.00,WeatherDisplay:10.37,2013-02-18 17:31:00,
2013-02-18 12:36:00,30.7,16.0,30.16,ESE,112,2.4,3.7,54,0.00,SCT,,0.00,WeatherDisplay:10.37,2013-02-18 17:36:00,
2013-02-18 12:41:00,29.8,13.4,30.16,SSE,158,4.9,6.9,50,0.00,SCT,,0.00,WeatherDisplay:10.37,2013-02-18 17:41:00,
2013-02-18 12:46:00,30.0,14.0,30.16,SSE,158,5.7,5.8,51,0.00,SCT,,0.00,WeatherDisplay:10.37,2013-02-18 17:46:00,
2013-02-18 12:51:00,30.2,12.8,30.15,SSE,158,5.2,5.8,48,0.00,SCT,,0.00,WeatherDisplay:10.37,2013-02-18 17:51:00,
2013-02-18 12:56:00,31.6,15.5,30.15,SE,135,6.4,6.4,51,0.00,SCT,,0.00,WeatherDisplay:10.37,2013-02-18 17:56:00,
2013-02-18 13:02:00,30.2,13.3,30.15,SSE,158,4.4,5.8,49,0.00,SCT,,0.00,WeatherDisplay:10.37,2013-02-18 18:02:00,
2013-02-18 13:07:00,29.8,12.5,30.14,South,180,5.4,5.8,48,0.00,SCT,,0.00,WeatherDisplay:10.37,2013-02-18 18:07:00,
2013-02-18 13:12:00,30.9,14.0,30.14,SE,135,6.3,6.9,49,0.00,BKN,,0.00,WeatherDisplay:10.37,2013-02-18 18:12:00,
2013-02-18 13:17:00,31.1,14.1,30.13,SSW,202,3.9,4.6,49,0.00,BKN,,0.00,WeatherDisplay:10.37,2013-02-18 18:17:00,
2013-02-18 13:22:00,30.9,12.5,30.13,SW,225,3.7,6.9,46,0.00,BKN,,0.00,WeatherDisplay:10.37,2013-02-18 18:22:00,
2013-02-18 13:27:00,31.5,13.1,30.12,SSE,158,4.3,4.6,46,0.00,BKN,,0.00,WeatherDisplay:10.37,2013-02-18 18:27:00,
2013-02-18 13:32:00,31.8,12.3,30.12,South,180,4.7,5.8,44,0.00,BKN,,0.00,WeatherDisplay:10.37,2013-02-18 18:32:00,
2013-02-18 13:37:00,31.3,11.9,30.12,SE,135,5.3,5.8,44,0.00,BKN,,0.00,WeatherDisplay:10.37,2013-02-18 18:37:00,
2013-02-18 13:42:00,32.2,12.2,30.12,South,180,5.2,8.3,43,0.00,BKN,,0.00,WeatherDisplay:10.37,2013-02-18 18:42:00,
2013-02-18 13:47:00,31.5,10.5,30.12,ESE,112,4.4,4.7,41,0.00,BKN,,0.00,WeatherDisplay:10.37,2013-02-18 18:47:00,
2013-02-18 13:52:00,32.2,11.1,30.11,SSE,158,3.1,5.8,41,0.00,BKN,,0.00,WeatherDisplay:10.37,2013-02-18 18:52:00,
2013-02-18 13:57:00,31.1,10.6,30.11,ESE,112,3.4,5.8,42,0.00,BKN,,0.00,WeatherDisplay:10.37,2013-02-18 18:57:00,
2013-02-18 14:02:00,31.6,10.6,30.10,SSE,158,1.3,2.3,41,0.00,BKN,,0.00,WeatherDisplay:10.37,2013-02-18 19:02:00,
2013-02-18 14:07:00,33.4,11.6,30.10,NW,315,3.1,6.9,40,0.00,BKN,,0.00,WeatherDisplay:10.37,2013-02-18 19:07:00,
2013-02-18 14:12:00,34.2,11.2,30.10,WSW,248,3.6,3.6,38,0.00,BKN,,0.00,WeatherDisplay:10.37,2013-02-18 19:12:00,
2013-02-18 14:17:00,33.6,10.7,30.10,ESE,112,5.7,6.9,38,0.00,BKN,,0.00,WeatherDisplay:10.37,2013-02-18 19:17:00,
2013-02-18 14:22:00,33.4,8.6,30.10,SE,135,5.0,5.8,35,0.00,BKN,,0.00,WeatherDisplay:10.37,2013-02-18 19:22:00,
2013-02-18 14:27:00,34.2,11.2,30.09,South,180,4.5,5.8,38,0.00,BKN,,0.00,WeatherDisplay:10.37,2013-02-18 19:27:00,
2013-02-18 14:32:00,33.4,9.3,30.09,SSE,158,4.6,5.8,36,0.00,BKN,,0.00,WeatherDisplay:10.37,2013-02-18 19:32:00,
2013-02-18 14:37:00,33.8,10.2,30.09,South,180,6.7,8.1,37,0.00,BKN,,0.00,WeatherDisplay:10.37,2013-02-18 19:37:00,
2013-02-18 14:42:00,34.2,8.7,30.10,SSE,158,4.2,4.2,34,0.00,BKN,,0.00,WeatherDisplay:10.37,2013-02-18 19:42:00,
2013-02-18 14:47:00,33.8,8.4,30.10,SSE,158,4.7,5.8,34,0.00,BKN,,0.00,WeatherDisplay:10.37,2013-02-18 19:47:00,
2013-02-18 14:52:00,33.8,9.6,30.09,WSW,248,1.8,4.7,36,0.00,BKN,,0.00,WeatherDisplay:10.37,2013-02-18 19:52:00,
2013-02-18 14:57:00,34.5,9.0,30.09,South,180,3.4,3.7,34,0.00,BKN,,0.00,WeatherDisplay:10.37,2013-02-18 19:57:00,
2013-02-18 15:02:00,34.2,8.0,30.08,SSE,158,2.8,5.8,33,0.00,BKN,,0.00,WeatherDisplay:10.37,2013-02-18 20:02:00,
2013-02-18 15:07:00,34.3,8.8,30.08,SE,135,5.9,6.8,34,0.00,BKN,,0.00,WeatherDisplay:10.37,2013-02-18 20:07:00,
2013-02-18 15:12:00,34.3,8.1,30.08,SSE,158,4.3,6.9,33,0.00,BKN,,0.00,WeatherDisplay:10.37,2013-02-18 20:12:00,
2013-02-18 15:17:00,34.9,10.6,30.07,SSE,158,4.7,6.3,36,0.00,BKN,,0.00,WeatherDisplay:10.37,2013-02-18 20:17:00,
2013-02-18 15:22:00,35.1,10.2,30.07,SE,135,4.3,6.9,35,0.00,BKN,,0.00,WeatherDisplay:10.37,2013-02-18 20:22:00,
2013-02-18 15:27:00,35.1,8.8,30.06,ESE,112,3.7,5.8,33,0.00,BKN,,0.00,WeatherDisplay:10.37,2013-02-18 20:27:00,
2013-02-18 15:32:00,35.4,9.1,30.06,SSE,158,3.5,4.6,33,0.00,BKN,,0.00,WeatherDisplay:10.37,2013-02-18 20:32:00,
2013-02-18 15:37:00,34.7,9.1,30.06,SSE,158,4.2,4.6,34,0.00,BKN,,0.00,WeatherDisplay:10.37,2013-02-18 20:37:00,
2013-02-18 15:42:00,34.9,10.0,30.06,East,90,4.2,5.8,35,0.00,BKN,,0.00,WeatherDisplay:10.37,2013-02-18 20:42:00,
2013-02-18 15:47:00,34.7,9.8,30.06,SE,135,5.4,6.3,35,0.00,BKN,,0.00,WeatherDisplay:10.37,2013-02-18 20:47:00,
2013-02-18 15:52:00,34.5,9.0,30.05,SSE,158,4.1,5.8,34,0.00,BKN,,0.00,WeatherDisplay:10.37,2013-02-18 20:52:00,
2013-02-18 15:57:00,34.5,9.0,30.05,SSE,158,3.0,4.6,34,0.00,BKN,,0.00,WeatherDisplay:10.37,2013-02-18 20:57:00,
2013-02-18 16:02:00,35.1,9.5,30.05,ESE,112,4.5,4.6,34,0.00,BKN,,0.00,WeatherDisplay:10.37,2013-02-18 21:02:00,
2013-02-18 16:07:00,35.4,10.4,30.05,SE,135,3.2,4.2,35,0.00,BKN,,0.00,WeatherDisplay:10.37,2013-02-18 21:07:00,
2013-02-18 16:12:00,35.2,10.9,30.05,SSE,158,3.5,4.7,36,0.00,BKN,,0.00,WeatherDisplay:10.37,2013-02-18 21:12:00,
2013-02-18 16:17:00,35.1,11.4,30.04,ESE,112,6.0,6.0,37,0.00,BKN,,0.00,WeatherDisplay:10.37,2013-02-18 21:17:00,
2013-02-18 16:22:00,35.1,11.4,30.04,SW,225,4.6,5.8,37,0.00,BKN,,0.00,WeatherDisplay:10.37,2013-02-18 21:22:00,
2013-02-18 16:28:00,35.4,11.7,30.04,SSE,158,5.9,8.1,37,0.00,BKN,,0.00,WeatherDisplay:10.37,2013-02-18 21:28:00,
2013-02-18 16:33:00,35.6,11.9,30.04,SE,135,3.8,4.6,37,0.00,BKN,,0.00,WeatherDisplay:10.37,2013-02-18 21:33:00,
2013-02-18 16:38:00,35.8,12.0,30.04,SSE,158,3.4,5.3,37,0.00,BKN,,0.00,WeatherDisplay:10.37,2013-02-18 21:38:00,
2013-02-18 16:43:00,35.8,11.4,30.03,ESE,112,3.8,6.3,36,0.00,BKN,,0.00,WeatherDisplay:10.37,2013-02-18 21:43:00,
2013-02-18 16:48:00,35.8,11.4,30.03,ESE,112,4.3,5.8,36,0.00,BKN,,0.00,WeatherDisplay:10.37,2013-02-18 21:48:00,
2013-02-18 16:53:00,35.6,11.9,30.02,ESE,112,4.7,6.3,37,0.00,BKN,,0.00,WeatherDisplay:10.37,2013-02-18 21:53:00,
2013-02-18 16:58:00,35.4,11.7,30.02,SSW,202,4.0,5.8,37,0.00,BKN,,0.00,WeatherDisplay:10.37,2013-02-18 21:58:00,
2013-02-18 17:03:00,35.4,11.7,30.02,SSE,158,5.0,5.8,37,0.00,BKN,,0.00,WeatherDisplay:10.37,2013-02-18 22:03:00,
2013-02-18 17:08:00,35.2,12.1,30.02,SE,135,2.7,3.5,38,0.00,BKN,,0.00,WeatherDisplay:10.37,2013-02-18 22:08:00,
2013-02-18 17:13:00,35.1,12.0,30.02,SE,135,4.0,4.6,38,0.00,BKN,,0.00,WeatherDisplay:10.37,2013-02-18 22:13:00,
2013-02-18 17:18:00,34.9,11.8,30.01,East,90,3.2,3.7,38,0.00,BKN,,0.00,WeatherDisplay:10.37,2013-02-18 22:18:00,
2013-02-18 17:23:00,34.7,11.0,30.01,SE,135,3.1,3.5,37,0.00,BKN,,0.00,WeatherDisplay:10.37,2013-02-18 22:23:00,
2013-02-18 17:28:00,34.5,11.5,30.01,SE,135,4.4,4.6,38,0.00,BKN,,0.00,WeatherDisplay:10.37,2013-02-18 22:28:00,
2013-02-18 17:33:00,34.3,11.3,30.01,ESE,112,2.6,2.6,38,0.00,BKN,,0.00,WeatherDisplay:10.37,2013-02-18 22:33:00,
2013-02-18 17:38:00,34.0,12.2,30.01,SSE,158,2.5,2.7,40,0.00,BKN,,0.00,WeatherDisplay:10.37,2013-02-18 22:38:00,
2013-02-18 17:43:00,33.6,12.4,30.00,ESE,112,2.2,2.3,41,0.00,BKN,,0.00,WeatherDisplay:10.37,2013-02-18 22:43:00,
2013-02-18 17:48:00,33.3,12.6,30.00,SE,135,3.0,3.5,42,0.00,BKN,,0.00,WeatherDisplay:10.37,2013-02-18 22:48:00,
2013-02-18 17:53:00,33.3,12.6,30.00,ESE,112,2.3,2.3,42,0.00,BKN,,0.00,WeatherDisplay:10.37,2013-02-18 22:53:00,
2013-02-18 17:58:00,33.1,11.9,30.00,SSE,158,0.7,1.1,41,0.00,BKN,,0.00,WeatherDisplay:10.37,2013-02-18 22:58:00,
2013-02-18 18:03:00,32.7,12.1,30.00,East,90,1.9,2.3,42,0.00,BKN,,0.00,WeatherDisplay:10.37,2013-02-18 23:03:00,
2013-02-18 18:08:00,32.5,12.5,30.00,ESE,112,1.4,2.3,43,0.00,BKN,,0.00,WeatherDisplay:10.37,2013-02-18 23:08:00,
2013-02-18 18:13:00,32.2,12.2,30.00,SE,135,2.0,2.3,43,0.00,BKN,,0.00,WeatherDisplay:10.37,2013-02-18 23:13:00,
2013-02-18 18:18:00,32.0,12.5,30.00,SE,135,0.7,2.7,44,0.00,BKN,,0.00,WeatherDisplay:10.37,2013-02-18 23:18:00,
2013-02-18 18:23:00,32.0,12.0,30.00,SE,135,3.3,3.7,43,0.00,BKN,,0.00,WeatherDisplay:10.37,2013-02-18 23:23:00,
2013-02-18 18:28:00,32.0,12.5,29.99,SE,135,2.5,3.7,44,0.00,BKN,,0.00,WeatherDisplay:10.37,2013-02-18 23:28:00,
2013-02-18 18:33:00,32.0,12.5,29.99,ESE,112,2.4,2.4,44,0.00,BKN,,0.00,WeatherDisplay:10.37,2013-02-18 23:33:00,
2013-02-18 18:38:00,32.2,12.7,29.99,SE,135,2.9,3.7,44,0.00,BKN,,0.00,WeatherDisplay:10.37,2013-02-18 23:38:00,
2013-02-18 18:43:00,32.5,13.0,29.98,ESE,112,3.5,4.6,44,0.00,BKN,,0.00,WeatherDisplay:10.37,2013-02-18 23:43:00,
2013-02-18 18:54:00,32.5,13.5,29.98,SE,135,0.0,4.2,45,0.00,CLR,,0.00,WeatherDisplay:10.37,2013-02-18 23:54:00,
2013-02-18 18:59:00,32.5,13.5,29.97,SSE,158,2.1,2.3,45,0.00,BKN,,0.00,WeatherDisplay:10.37,2013-02-18 23:59:00,
2013-02-18 19:04:00,32.5,13.5,29.97,SE,135,4.2,7.3,45,0.00,BKN,,0.00,WeatherDisplay:10.37,2013-02-19 00:04:00,
2013-02-18 19:09:00,33.3,13.2,29.97,ESE,112,3.8,4.6,43,0.00,BKN,,0.00,WeatherDisplay:10.37,2013-02-19 00:09:00,
2013-02-18 19:14:00,33.4,13.8,29.96,SE,135,5.0,9.2,44,0.00,BKN,,0.00,WeatherDisplay:10.37,2013-02-19 00:14:00,
2013-02-18 19:19:00,33.6,13.5,29.96,SSE,158,5.2,6.8,43,0.00,BKN,,0.00,WeatherDisplay:10.37,2013-02-19 00:19:00,
2013-02-18 19:24:00,33.8,13.1,29.96,SSE,158,4.2,5.8,42,0.00,BKN,,0.00,WeatherDisplay:10.37,2013-02-19 00:24:00,
2013-02-18 19:29:00,33.8,13.6,29.95,SSE,158,5.7,8.1,43,0.00,BKN,,0.00,WeatherDisplay:10.37,2013-02-19 00:29:00,
2013-02-18 19:34:00,34.0,13.8,29.95,SE,135,5.3,8.1,43,0.00,BKN,,0.00,WeatherDisplay:10.37,2013-02-19 00:34:00,
2013-02-18 19:40:00,34.0,13.8,29.94,SSE,166,3.0,8.0,43,0.00,BKN,BKN,0.00,WeatherDisplay:10.37,2013-02-19 00:40:00,
2013-02-18 19:45:00,34.0,13.8,29.94,South,172,6.0,7.0,43,0.00,BKN,BKN,0.00,WeatherDisplay:10.37,2013-02-19 00:45:00,
2013-02-18 19:50:00,34.0,14.3,29.94,South,180,3.9,4.6,44,0.00,BKN,,0.00,WeatherDisplay:10.37,2013-02-19 00:50:00,
2013-02-18 19:55:00,34.0,14.3,29.94,SSE,158,3.3,4.6,44,0.00,BKN,,0.00,WeatherDisplay:10.37,2013-02-19 00:55:00,
2013-02-18 20:00:00,34.0,14.3,29.94,SSE,147,3.0,6.0,44,0.00,BKN,BKN,0.00,WeatherDisplay:10.37,2013-02-19 01:00:00,
2013-02-18 20:05:00,33.8,14.2,29.94,SSE,158,3.9,5.8,44,0.00,BKN,,0.00,WeatherDisplay:10.37,2013-02-19 01:05:00,
2013-02-18 20:10:00,33.8,14.2,29.94,SSE,158,3.0,6.0,44,0.00,BKN,BKN,0.00,WeatherDisplay:10.37,2013-02-19 01:10:00,
2013-02-18 20:15:00,33.8,14.2,29.94,SSE,158,4.7,4.7,44,0.00,BKN,,0.00,WeatherDisplay:10.37,2013-02-19 01:15:00,
2013-02-18 20:20:00,33.6,14.5,29.93,SW,225,4.4,5.8,45,0.00,BKN,,0.00,WeatherDisplay:10.37,2013-02-19 01:20:00,
2013-02-18 20:25:00,33.6,14.5,29.93,South,174,6.0,8.0,45,0.00,BKN,BKN,0.00,WeatherDisplay:10.37,2013-02-19 01:25:00,
2013-02-18 20:30:00,33.8,14.7,29.92,SSE,164,5.0,7.0,45,0.00,BKN,BKN,0.00,WeatherDisplay:10.37,2013-02-19 01:30:00,
2013-02-18 20:35:00,33.4,14.8,29.92,ESE,112,3.7,5.8,46,0.00,BKN,,0.00,WeatherDisplay:10.37,2013-02-19 01:35:00,
2013-02-18 20:40:00,33.4,14.8,29.91,SE,135,4.7,6.3,46,0.00,BKN,,0.00,WeatherDisplay:10.37,2013-02-19 01:40:00,
2013-02-18 20:45:00,33.4,14.8,29.91,SE,135,4.4,4.6,46,0.00,BKN,,0.00,WeatherDisplay:10.37,2013-02-19 01:45:00,
2013-02-18 20:50:00,33.3,15.2,29.91,SSE,158,3.3,4.2,47,0.00,BKN,,0.00,WeatherDisplay:10.37,2013-02-19 01:50:00,
2013-02-18 20:55:00,33.3,15.7,29.91,SE,135,4.7,5.8,48,0.00,BKN,,0.00,WeatherDisplay:10.37,2013-02-19 01:55:00,
2013-02-18 21:00:00,33.3,15.7,29.91,SSE,158,4.1,4.6,48,0.00,BKN,,0.00,WeatherDisplay:10.37,2013-02-19 02:00:00,
2013-02-18 21:05:00,33.3,16.2,29.91,SSE,158,3.5,4.6,49,0.00,BKN,,0.00,WeatherDisplay:10.37,2013-02-19 02:05:00,
2013-02-18 21:10:00,33.3,16.2,29.91,SSE,158,3.9,4.6,49,0.00,BKN,,0.00,WeatherDisplay:10.37,2013-02-19 02:10:00,
2013-02-18 21:15:00,33.1,16.0,29.91,SSE,158,3.5,4.7,49,0.00,BKN,,0.00,WeatherDisplay:10.37,2013-02-19 02:15:00,
2013-02-18 21:21:00,32.9,16.3,29.91,SE,135,2.7,3.7,50,0.00,BKN,,0.00,WeatherDisplay:10.37,2013-02-19 02:21:00,
2013-02-18 21:26:00,32.9,16.3,29.90,SE,135,2.5,2.5,50,0.00,BKN,,0.00,WeatherDisplay:10.37,2013-02-19 02:26:00,
2013-02-18 21:31:00,32.9,16.3,29.90,South,180,3.8,4.7,50,0.00,BKN,,0.00,WeatherDisplay:10.37,2013-02-19 02:31:00,
2013-02-18 21:36:00,33.4,16.7,29.90,South,180,4.0,4.6,50,0.00,BKN,,0.00,WeatherDisplay:10.37,2013-02-19 02:36:00,
2013-02-18 21:41:00,33.6,16.9,29.90,SE,135,3.0,3.7,50,0.00,BKN,,0.00,WeatherDisplay:10.37,2013-02-19 02:41:00,
2013-02-18 21:46:00,33.6,16.9,29.90,ESE,112,2.1,3.5,50,0.00,BKN,,0.00,WeatherDisplay:10.37,2013-02-19 02:46:00,
2013-02-18 21:51:00,33.6,16.9,29.90,South,180,4.2,5.3,50,0.00,BKN,,0.00,WeatherDisplay:10.37,2013-02-19 02:51:00,
2013-02-18 21:56:00,33.6,16.9,29.90,SSE,158,3.2,4.6,50,0.00,BKN,,0.00,WeatherDisplay:10.37,2013-02-19 02:56:00,
2013-02-18 22:01:00,34.0,17.3,29.90,SSE,158,5.4,5.4,50,0.00,SCT,,0.00,WeatherDisplay:10.37,2013-02-19 03:01:00,
2013-02-18 22:07:00,34.0,17.3,29.88,SE,135,2.0,3.5,50,0.00,SCT,,0.00,WeatherDisplay:10.37,2013-02-19 03:07:00,
2013-02-18 22:12:00,34.0,17.3,29.88,SE,135,4.0,4.7,50,0.00,SCT,,0.00,WeatherDisplay:10.37,2013-02-19 03:12:00,
2013-02-18 22:17:00,34.2,17.9,29.88,SSE,158,3.0,3.5,51,0.00,SCT,,0.00,WeatherDisplay:10.37,2013-02-19 03:17:00,
2013-02-18 22:22:00,34.2,17.9,29.88,SE,135,2.6,3.5,51,0.00,SCT,,0.00,WeatherDisplay:10.37,2013-02-19 03:22:00,
2013-02-18 22:27:00,34.0,18.2,29.88,East,90,2.7,2.7,52,0.00,SCT,,0.00,WeatherDisplay:10.37,2013-02-19 03:27:00,
2013-02-18 22:32:00,34.3,18.5,29.88,SE,135,2.1,3.5,52,0.00,SCT,,0.00,WeatherDisplay:10.37,2013-02-19 03:32:00,
2013-02-18 22:37:00,34.9,19.0,29.88,SSE,158,3.1,4.6,52,0.00,SCT,,0.00,WeatherDisplay:10.37,2013-02-19 03:37:00,
2013-02-18 22:42:00,35.4,19.5,29.87,SE,135,4.5,5.8,52,0.00,SCT,,0.00,WeatherDisplay:10.37,2013-02-19 03:42:00,
2013-02-18 22:47:00,35.6,19.2,29.87,SE,135,3.6,4.6,51,0.00,SCT,,0.00,WeatherDisplay:10.37,2013-02-19 03:47:00,
2013-02-18 22:52:00,35.6,19.2,29.87,SSE,158,4.0,4.6,51,0.00,SCT,,0.00,WeatherDisplay:10.37,2013-02-19 03:52:00,
2013-02-18 22:58:00,35.8,19.4,29.87,SSE,158,3.3,4.6,51,0.00,SCT,,0.00,WeatherDisplay:10.37,2013-02-19 03:58:00,
2013-02-18 23:03:00,35.8,19.4,29.86,SSE,158,4.5,5.8,51,0.00,SCT,,0.00,WeatherDisplay:10.37,2013-02-19 04:03:00,
2013-02-18 23:08:00,35.6,19.2,29.86,SE,135,3.3,3.5,51,0.00,SCT,,0.00,WeatherDisplay:10.37,2013-02-19 04:08:00,
2013-02-18 23:13:00,35.6,19.7,29.86,SE,135,3.9,4.6,52,0.00,BKN,,0.00,WeatherDisplay:10.37,2013-02-19 04:13:00,
2013-02-18 23:18:00,35.6,19.7,29.85,SSE,158,5.4,6.3,52,0.00,BKN,,0.00,WeatherDisplay:10.37,2013-02-19 04:18:00,
2013-02-18 23:23:00,35.8,19.9,29.85,SE,135,4.1,5.8,52,0.00,BKN,,0.00,WeatherDisplay:10.37,2013-02-19 04:23:00,
2013-02-18 23:28:00,35.8,19.9,29.85,SSE,158,4.7,5.8,52,0.00,BKN,,0.00,WeatherDisplay:10.37,2013-02-19 04:28:00,
2013-02-18 23:33:00,35.8,19.9,29.85,SE,135,6.0,6.9,52,0.00,BKN,,0.00,WeatherDisplay:10.37,2013-02-19 04:33:00,
2013-02-18 23:38:00,35.8,19.9,29.85,SSE,158,4.7,4.7,52,0.00,BKN,,0.00,WeatherDisplay:10.37,2013-02-19 04:38:00,
2013-02-18 23:43:00,35.8,20.3,29.85,ESE,112,4.0,5.8,53,0.00,BKN,,0.00,WeatherDisplay:10.37,2013-02-19 04:43:00,
2013-02-18 23:48:00,35.6,20.1,29.85,SE,135,3.3,3.7,53,0.00,BKN,,0.00,WeatherDisplay:10.37,2013-02-19 04:48:00,
2013-02-18 23:53:00,35.6,20.1,29.85,South,180,3.9,5.8,53,0.00,BKN,,0.00,WeatherDisplay:10.37,2013-02-19 04:53:00,
2013-02-18 23:58:00,35.8,20.8,29.85,ESE,112,3.2,3.7,54,0.00,BKN,,0.00,WeatherDisplay:10.37,2013-02-19 04:58:00,